Weather History for Monroe, WI

Change the Weather History Date:

Monday, January 21, 2013

  Actual Average Record
Temperature  
Mean Temperature 6 °F -  
Max Temperature 12 °F 0 °F 35 °F (2002)
Min Temperature 1 °F - -11 °F (2000)
Degree Days  
Heating Degree Days 58    
Moisture  
Dew Point -6 °F    
Average Humidity 61    
Maximum Humidity 78    
Minimum Humidity 47    
Precipitation  
Precipitation 0.00 in - - ()
Sea Level Pressure  
Sea Level Pressure 30.16 in    
Wind  
Wind Speed 15 mph (West)    
Max Wind Speed 23 mph    
Max Gust Speed 29 mph    
Visibility 10 miles    
Events      
Averages and records for this station are not official NWS values.
T = Trace of Precipitation, MM = Missing Value Source: NWS Daily Summary

Daily Weather History Graph

Daily Weather History Graph

Search for Another Location

Airport:

Trip Planner

Search our weather history database for the weather conditions in past years. The results will help you decide how hot, cold, wet, or windy it might be!

Date:

Astronomy

Jan. 21, 2013 Rise Set
Actual Time 7:21 AM CST 4:58 PM CST
Civil Twilight 6:51 AM CST 5:28 PM CST
Nautical Twilight 6:16 AM CST 6:03 PM CST
Astronomical Twilight 5:43 AM CST 6:36 PM CST
Moon 12:37 PM CST 2:50 AM CST
Length of Visible Light 10h 37m
Length of Day
9h 36m
Waxing Gibbous, 75% of the Moon is Illuminated
Jan 21
Waxing Gibbous
Jan 26
Full
Feb 3
Last Quarter
Feb 10
New
Feb 17
First Quarter

Hourly Weather History & Observations

Time (CST) Temp. Windchill Dew Point Humidity Pressure Visibility Wind Dir Wind Speed Gust Speed Precip Events Conditions
12:15 AM 10.4 °F -4.8 °F 1.4 °F 67% 30.15 in 10.0 mi West 12.7 mph 17.3 mph N/A   Scattered Clouds
12:35 AM 10.4 °F -4.1 °F 3.2 °F 73% 30.14 in 10.0 mi West 11.5 mph 17.3 mph N/A   Overcast
12:55 AM 12.2 °F -2.5 °F 3.2 °F 67% 30.13 in 10.0 mi West 12.7 mph 19.6 mph N/A   Overcast
1:15 AM 10.4 °F -7.2 °F 1.4 °F 67% 30.13 in 10.0 mi West 17.3 mph 20.7 mph N/A   Overcast
1:35 AM 10.4 °F -6.6 °F 1.4 °F 67% 30.13 in 10.0 mi West 16.1 mph 23.0 mph N/A   Mostly Cloudy
1:55 AM 10.4 °F -3.3 °F 1.4 °F 67% 30.13 in 7.0 mi West 10.4 mph 20.7 mph N/A   Mostly Cloudy
2:15 AM 10.4 °F -6.0 °F 1.4 °F 67% 30.13 in 10.0 mi West 15.0 mph 20.7 mph N/A   Scattered Clouds
2:35 AM 10.4 °F -4.1 °F 1.4 °F 67% 30.12 in 10.0 mi WNW 11.5 mph - N/A   Clear
2:55 AM 8.6 °F -5.5 °F 1.4 °F 73% 30.12 in 10.0 mi WNW 10.4 mph - N/A   Clear
3:15 AM 8.6 °F -4.7 °F -0.4 °F 67% 30.11 in 10.0 mi WNW 9.2 mph 17.3 mph N/A   Clear
3:35 AM 8.6 °F -4.7 °F -0.4 °F 67% 30.11 in 10.0 mi West 9.2 mph - N/A   Clear
3:55 AM 8.6 °F -4.7 °F 1.4 °F 73% 30.10 in 10.0 mi West 9.2 mph - N/A   Mostly Cloudy
4:15 AM 8.6 °F -6.3 °F 1.4 °F 73% 30.10 in 7.0 mi West 11.5 mph 21.9 mph N/A   Overcast
4:35 AM 8.6 °F -10.0 °F -0.4 °F 67% 30.10 in 10.0 mi West 18.4 mph - N/A   Overcast
4:55 AM 6.8 °F -12.4 °F -0.4 °F 72% 30.10 in 10.0 mi West 18.4 mph 23.0 mph N/A   Overcast
5:15 AM 5.0 °F -15.2 °F -0.4 °F 78% 30.10 in 5.0 mi West 19.6 mph 24.2 mph N/A   Haze
5:35 AM 5.0 °F -13.6 °F -4.0 °F 66% 30.10 in 10.0 mi West 16.1 mph 20.7 mph N/A   Mostly Cloudy
5:55 AM 5.0 °F -14.2 °F -4.0 °F 66% 30.11 in 10.0 mi West 17.3 mph 21.9 mph N/A   Scattered Clouds
6:15 AM 3.2 °F -15.3 °F -5.8 °F 66% 30.11 in 10.0 mi WNW 15.0 mph 23.0 mph N/A   Clear
6:35 AM 3.2 °F -17.1 °F -5.8 °F 66% 30.12 in 10.0 mi West 18.4 mph 25.3 mph N/A   Clear
6:55 AM 3.2 °F -16.5 °F -5.8 °F 66% 30.12 in 10.0 mi West 17.3 mph 20.7 mph N/A   Scattered Clouds
7:15 AM 3.2 °F -18.6 °F -5.8 °F 66% 30.12 in 10.0 mi West 21.9 mph 26.5 mph N/A   Mostly Cloudy
7:35 AM 1.4 °F -19.4 °F -7.6 °F 66% 30.13 in 10.0 mi West 18.4 mph 23.0 mph N/A   Mostly Cloudy
7:55 AM 1.4 °F -18.8 °F -7.6 °F 66% 30.14 in 10.0 mi WNW 17.3 mph 23.0 mph N/A   Scattered Clouds
8:15 AM 1.4 °F -19.9 °F -5.8 °F 72% 30.15 in 5.0 mi WNW 19.6 mph 25.3 mph N/A   Haze
8:35 AM 1.4 °F -19.4 °F -5.8 °F 72% 30.16 in 3.0 mi West 18.4 mph 24.2 mph N/A   Haze
8:55 AM 1.4 °F -18.8 °F -7.6 °F 66% 30.16 in 5.0 mi WNW 17.3 mph 25.3 mph N/A   Haze
9:15 AM 1.4 °F -19.4 °F -7.6 °F 66% 30.17 in 10.0 mi WNW 18.4 mph 26.5 mph N/A   Overcast
9:35 AM 1.4 °F -18.8 °F -9.4 °F 61% 30.18 in 10.0 mi WNW 17.3 mph 24.2 mph N/A   Mostly Cloudy
9:55 AM 3.2 °F -15.9 °F -7.6 °F 61% 30.18 in 10.0 mi WNW 16.1 mph - N/A   Mostly Cloudy
10:15 AM 3.2 °F -17.1 °F -9.4 °F 56% 30.19 in 10.0 mi WNW 18.4 mph 24.2 mph N/A   Mostly Cloudy
10:35 AM 3.2 °F -16.5 °F -9.4 °F 56% 30.19 in 10.0 mi West 17.3 mph 23.0 mph N/A   Mostly Cloudy
10:55 AM 3.2 °F -15.9 °F -9.4 °F 56% 30.19 in 10.0 mi WNW 16.1 mph 21.9 mph N/A   Mostly Cloudy
11:15 AM 3.2 °F -15.9 °F -9.4 °F 56% 30.18 in 10.0 mi West 16.1 mph 23.0 mph N/A   Scattered Clouds
11:35 AM 5.0 °F -14.7 °F -9.4 °F 52% 30.18 in 10.0 mi WNW 18.4 mph 23.0 mph N/A   Scattered Clouds
11:55 AM 5.0 °F -11.6 °F -9.4 °F 52% 30.17 in 10.0 mi West 12.7 mph 24.2 mph N/A   Scattered Clouds
12:15 PM 5.0 °F -13.0 °F -9.4 °F 52% 30.16 in 10.0 mi WNW 15.0 mph 23.0 mph N/A   Scattered Clouds
12:35 PM 5.0 °F -14.7 °F -9.4 °F 52% 30.16 in 10.0 mi WNW 18.4 mph 26.5 mph N/A   Scattered Clouds
12:55 PM 5.0 °F -14.2 °F -9.4 °F 52% 30.15 in 10.0 mi West 17.3 mph 23.0 mph N/A   Scattered Clouds
1:15 PM 5.0 °F -13.6 °F -9.4 °F 52% 30.15 in 10.0 mi West 16.1 mph 26.5 mph N/A   Scattered Clouds
1:35 PM 6.8 °F -13.8 °F -9.4 °F 48% 30.15 in 10.0 mi West 21.9 mph 27.6 mph N/A   Scattered Clouds
1:55 PM 6.8 °F -14.3 °F -9.4 °F 48% 30.15 in 10.0 mi West 23.0 mph 28.8 mph N/A   Clear
2:15 PM 5.0 °F -15.2 °F -9.4 °F 52% 30.15 in 10.0 mi WNW 19.6 mph 27.6 mph N/A   Clear
2:35 PM 6.8 °F -10.0 °F -9.4 °F 48% 30.15 in 10.0 mi West 13.8 mph 27.6 mph N/A   Scattered Clouds
2:55 PM 5.0 °F -13.6 °F -9.4 °F 52% 30.16 in 10.0 mi West 16.1 mph 28.8 mph N/A   Mostly Cloudy
3:15 PM 6.8 °F -11.3 °F -9.4 °F 48% 30.16 in 10.0 mi WNW 16.1 mph 24.2 mph N/A   Scattered Clouds
3:35 PM 6.8 °F -12.9 °F -9.4 °F 48% 30.16 in 10.0 mi West 19.6 mph - N/A   Clear
3:55 PM 5.0 °F -15.2 °F -11.2 °F 47% 30.16 in 10.0 mi West 19.6 mph 27.6 mph N/A   Clear
4:15 PM 5.0 °F -13.0 °F -9.4 °F 52% 30.16 in 10.0 mi West 15.0 mph 24.2 mph N/A   Clear
4:35 PM 5.0 °F -15.7 °F -9.4 °F 52% 30.17 in 10.0 mi West 20.7 mph 26.5 mph N/A   Clear
4:55 PM 5.0 °F -14.2 °F -9.4 °F 52% 30.17 in 10.0 mi West 17.3 mph 26.5 mph N/A   Clear
5:15 PM 3.2 °F -14.6 °F -9.4 °F 56% 30.17 in 10.0 mi West 13.8 mph 20.7 mph N/A   Clear
5:35 PM 3.2 °F -17.6 °F -9.4 °F 56% 30.18 in 10.0 mi West 19.6 mph - N/A   Clear
5:55 PM 3.2 °F -14.6 °F -9.4 °F 56% 30.18 in 10.0 mi West 13.8 mph 21.9 mph N/A   Clear
6:15 PM 3.2 °F -16.5 °F -9.4 °F 56% 30.18 in 10.0 mi West 17.3 mph 23.0 mph N/A   Clear
6:55 PM 3.2 °F -15.3 °F -7.6 °F 61% 30.19 in 10.0 mi West 15.0 mph - N/A   Clear
7:15 PM 3.2 °F -14.6 °F -7.6 °F 61% 30.19 in 10.0 mi West 13.8 mph 23.0 mph N/A   Clear
7:35 PM 3.2 °F -15.3 °F -7.6 °F 61% 30.19 in 10.0 mi West 15.0 mph 21.9 mph N/A   Clear
7:55 PM 3.2 °F -13.9 °F -7.6 °F 61% 30.20 in 10.0 mi West 12.7 mph - N/A   Clear
8:15 PM 3.2 °F -15.3 °F -9.4 °F 56% 30.20 in 10.0 mi West 15.0 mph 19.6 mph N/A   Clear
8:35 PM 3.2 °F -14.6 °F -9.4 °F 56% 30.20 in 10.0 mi WNW 13.8 mph 21.9 mph N/A   Clear
8:55 PM 3.2 °F -12.2 °F -9.4 °F 56% 30.20 in 10.0 mi West 10.4 mph 23.0 mph N/A   Clear
9:35 PM 1.4 °F -16.1 °F -9.4 °F 61% 30.21 in 10.0 mi West 12.7 mph 17.3 mph N/A   Clear
9:55 PM 1.4 °F -14.5 °F -9.4 °F 61% 30.22 in 10.0 mi WNW 10.4 mph 17.3 mph N/A   Clear
10:15 PM 1.4 °F -16.1 °F -9.4 °F 61% 30.22 in 10.0 mi West 12.7 mph 17.3 mph N/A   Clear
10:35 PM 1.4 °F -15.3 °F -9.4 °F 61% 30.22 in 10.0 mi WNW 11.5 mph 17.3 mph N/A   Clear
10:55 PM 1.4 °F -16.9 °F -9.4 °F 61% 30.23 in 10.0 mi WNW 13.8 mph 18.4 mph N/A   Clear
11:35 PM 1.4 °F -13.5 °F -7.6 °F 66% 30.23 in 10.0 mi WNW 9.2 mph - N/A   Clear
11:55 PM 1.4 °F -13.5 °F -9.4 °F 61% 30.22 in 10.0 mi WNW 9.2 mph - N/A   Clear